Dubuque, IA

1:17 PM CST on November 18, 2019 (GMT -0600)
Dubuque Regional

Weather History for KDBQ - September, 2019

Change the Weather History Date:

Thursday, September 12, 2019

  Actual Average Record
Temperature  
Mean Temperature 73 °F 64 °F  
Max Temperature 82 °F 74 °F 95 °F (1927)
Min Temperature 64 °F 53 °F 36 °F (1902)
Degree Days  
Heating Degree Days 0 4  
Month to date heating degree days 20 31  
Since 1 July heating degree days 29 58  
Cooling Degree Days 8 2  
Month to date cooling degree days 41 37  
Year to date cooling degree days 614 613  
Growing Degree Days 23 (Base 50)    
Moisture  
Dew Point 68 °F    
Average Humidity 97    
Maximum Humidity 100    
Minimum Humidity 76    
Precipitation  
Precipitation 4.27 in 0.12 in 4.37 in (1961)
Month to date precipitation 7.22 1.42  
Year to date precipitation 38.35 27.40  
Snow  
Snow 0.00 in 0.00 in - ()
Month to date snowfall 0.0 0.0  
Since 1 July snowfall 0.0 0.0  
Since 1 September snowfall 0.0 0.0  
Snow Depth 0.00 in    
Sea Level Pressure  
Sea Level Pressure 30.03 in    
Wind  
Wind Speed 10 mph ()    
Max Wind Speed 33 mph    
Max Gust Speed 48 mph    
Visibility 4.5 miles    
Events Fog , Rain , Thunderstorm    
T = Trace of Precipitation, MM = Missing Value Source: Averaged Metar Reports

Daily Weather History Graph

Daily Weather History Graph

Search for Another Location

Airport or City:

Astronomy

Sep. 12, 2019 Rise Set
Actual Time 6:39 AM CDT 7:18 PM CDT
Civil Twilight 6:11 AM CDT 7:46 PM CDT
Nautical Twilight 5:37 AM CDT 8:19 PM CDT
Astronomical Twilight 5:02 AM CDT 8:54 PM CDT
Moon 7:05 PM CDT (9/12) 4:55 AM CDT (9/12)
Length of Visible Light 13h 35m
Length of Day
12h 38m
Waxing Gibbous, 98% of the Moon is Illuminated
Sep 12
Waxing Gibbous
Sep 13
Full
Sep 21
Last Quarter
Sep 28
New
Oct 5
First Quarter

Hourly Weather History & Observations

Time (CDT) Temp. Heat Index Dew Point Humidity Pressure Visibility Wind Dir Wind Speed Gust Speed Precip Events Conditions
12:12 AM 66.9 °F - 66.9 °F 100% 30.06 in 1.2 mi East 9.2 mph - 0.35 in Rain , Thunderstorm Heavy Rain
12:19 AM 66.9 °F - 66.9 °F 100% 30.05 in 1.8 mi East 15.0 mph - 0.51 in Rain , Thunderstorm Heavy Thunderstorms and Rain
12:22 AM 66.9 °F - 66.9 °F 100% 30.05 in 3.0 mi East 12.7 mph - 0.54 in Rain , Thunderstorm Light Thunderstorms and Rain
12:40 AM 66.9 °F - 66.9 °F 100% 30.06 in 10.0 mi ENE 12.7 mph - 0.55 in Rain , Thunderstorm Light Rain
12:53 AM 68.0 °F - 68.0 °F 100% 30.06 in 9.0 mi NNE 6.9 mph - 0.55 in Thunderstorm Thunderstorm
1:01 AM 66.9 °F - 66.9 °F 100% 30.07 in 1.8 mi NNE 17.3 mph 25.3 mph 0.08 in Rain , Thunderstorm Heavy Thunderstorms and Rain
1:06 AM 66.9 °F - 66.9 °F 100% 30.06 in 1.2 mi NE 11.5 mph 25.3 mph 0.22 in Rain , Thunderstorm Heavy Rain
1:33 AM 66.9 °F - 66.9 °F 100% 30.09 in 3.0 mi ENE 8.1 mph - 0.77 in Rain , Thunderstorm Heavy Rain
1:42 AM 66.9 °F - 66.9 °F 100% 30.08 in 4.0 mi ESE 11.5 mph - 0.85 in Rain Rain
1:53 AM 66.9 °F - 66.9 °F 100% 30.06 in 10.0 mi NE 10.4 mph - 0.88 in Rain Light Rain
2:53 AM 66.9 °F - 66.9 °F 100% 30.06 in 10.0 mi East 8.1 mph - 0.00 in   Mostly Cloudy
3:33 AM 66.9 °F - 66.9 °F 100% 30.08 in 10.0 mi North 5.8 mph - N/A   Overcast
3:38 AM 66.9 °F - 66.9 °F 100% 30.08 in 10.0 mi NNE 5.8 mph - N/A   Overcast
3:53 AM 66.9 °F - 66.9 °F 100% 30.06 in 2.5 mi NE 10.4 mph - N/A   Overcast
4:00 AM 66.9 °F - 66.9 °F 100% 30.08 in 4.0 mi NE 8.1 mph - N/A   Overcast
4:14 AM 66.9 °F - 66.9 °F 100% 30.08 in 1.8 mi NE 8.1 mph - N/A   Overcast
4:21 AM 66.9 °F - 66.9 °F 100% 30.08 in 3.0 mi ENE 8.1 mph - N/A   Overcast
4:41 AM 66.0 °F - 66.0 °F 100% 30.08 in 1.8 mi NE 9.2 mph - N/A   Overcast
4:53 AM 66.0 °F - 66.0 °F 100% 30.06 in 2.0 mi NE 9.2 mph - N/A   Overcast
5:06 AM 66.0 °F - 66.0 °F 100% 30.08 in 0.8 mi NE 10.4 mph - N/A   Mist
5:53 AM 64.9 °F - 64.9 °F 100% 30.07 in 0.5 mi East 6.9 mph - N/A Fog Fog
6:10 AM 64.0 °F - 64.0 °F 100% 30.09 in 1.2 mi East 6.9 mph - N/A   Overcast
6:19 AM 64.0 °F - 64.0 °F 100% 30.09 in 0.5 mi East 6.9 mph - N/A Fog Fog
6:26 AM 64.0 °F - 64.0 °F 100% 30.09 in 0.2 mi East 6.9 mph - N/A Fog Fog
6:53 AM 64.0 °F - 64.0 °F 100% 30.08 in 0.2 mi East 8.1 mph - N/A Fog Fog
7:04 AM 64.0 °F - 64.0 °F 100% 30.09 in 0.2 mi East 8.1 mph - N/A Fog Fog
7:18 AM 64.0 °F - 64.0 °F 100% 30.09 in 0.2 mi East 9.2 mph - N/A Fog Fog
7:43 AM 64.0 °F - 64.0 °F 100% 30.09 in 0.2 mi East 9.2 mph - N/A Fog Fog
7:53 AM 64.0 °F - 64.0 °F 100% 30.08 in 0.2 mi East 8.1 mph - N/A Fog Fog
8:48 AM 64.4 °F - 64.4 °F 100% 30.08 in 0.5 mi East 6.9 mph - N/A Fog Fog
8:49 AM 64.9 °F - 64.9 °F 100% 30.07 in 0.5 mi ENE 6.9 mph - N/A Fog Fog
9:17 AM 64.9 °F - 64.9 °F 100% 30.09 in 0.2 mi ESE 6.9 mph - N/A Fog Fog
9:44 AM 66.0 °F - 66.0 °F 100% 30.09 in 0.8 mi East 6.9 mph - 0.11 in Rain Light Rain
9:53 AM 66.0 °F - 66.0 °F 100% 30.07 in 0.5 mi East 9.2 mph - 0.11 in Fog Fog
10:12 AM 66.9 °F - 66.9 °F 100% 30.07 in 2.0 mi ENE 10.4 mph - N/A   Overcast
10:20 AM 66.9 °F - 66.9 °F 100% 30.07 in 10.0 mi East 8.1 mph - N/A   Overcast
10:48 AM 66.2 °F - 66.2 °F 100% 30.10 in 2.5 mi SSW 5.8 mph - 0.00 in Rain , Thunderstorm Light Rain
10:50 AM 66.2 °F - 66.2 °F 100% 30.09 in 1.2 mi SE 6.9 mph - 0.00 in Rain , Thunderstorm Heavy Thunderstorms and Rain
10:53 AM 66.9 °F - 66.9 °F 100% 30.08 in 1.0 mi ESE 6.9 mph - 0.02 in Rain , Thunderstorm Heavy Thunderstorms and Rain
11:10 AM 66.9 °F - 66.9 °F 100% 30.08 in 8.0 mi East 6.9 mph - 0.14 in Thunderstorm Thunderstorm
11:12 AM 66.9 °F - 66.9 °F 100% 30.08 in 9.0 mi East 6.9 mph - 0.14 in   Overcast
11:19 AM 66.9 °F - 66.9 °F 100% 30.08 in 10.0 mi East 6.9 mph - 0.14 in   Overcast
11:53 AM 68.0 °F - 68.0 °F 100% 30.05 in 10.0 mi ESE 12.7 mph - 0.14 in   Scattered Clouds
12:36 PM 70.0 °F - 70.0 °F 100% 30.05 in 10.0 mi ESE 10.4 mph 17.3 mph N/A   Mostly Cloudy
12:53 PM 72.0 °F - 70.0 °F 93% 30.03 in 10.0 mi ESE 13.8 mph - N/A   Mostly Cloudy
1:00 PM 72.0 °F - 70.0 °F 93% 30.04 in 10.0 mi ESE 13.8 mph 20.7 mph N/A   Mostly Cloudy
1:53 PM 75.9 °F - 72.0 °F 87% 30.01 in 10.0 mi ESE 10.4 mph - N/A   Scattered Clouds
2:53 PM 79.0 °F - 73.9 °F 84% 29.98 in 10.0 mi SE 15.0 mph - N/A   Clear
3:53 PM 81.0 °F 86.7 °F 75.0 °F 82% 29.93 in 10.0 mi SE 16.1 mph 24.2 mph N/A   Clear
4:53 PM 81.0 °F 86.7 °F 75.0 °F 82% 29.91 in 10.0 mi SE 13.8 mph 21.9 mph N/A   Clear
5:53 PM 81.0 °F 85.8 °F 73.0 °F 77% 29.90 in 10.0 mi SSE 10.4 mph - N/A   Scattered Clouds
6:27 PM 80.1 °F 83.8 °F 72.0 °F 76% 29.90 in 10.0 mi SSE 13.8 mph - N/A Thunderstorm Mostly Cloudy
6:53 PM 79.0 °F - 71.1 °F 77% 29.90 in 5.0 mi South 11.5 mph 23.0 mph 0.00 in Rain , Thunderstorm Light Thunderstorms and Rain
6:56 PM 77.0 °F - 72.0 °F 84% 29.91 in 1.8 mi Variable 5.8 mph 23.0 mph 0.00 in Rain , Thunderstorm Heavy Thunderstorms and Rain
7:09 PM 75.0 °F - 73.0 °F 94% 29.90 in 3.0 mi West 10.4 mph - 0.27 in Rain , Thunderstorm Thunderstorms and Rain
7:25 PM 71.1 °F - 70.0 °F 96% 29.96 in 0.8 mi SSW 23.0 mph 48.3 mph 0.41 in Rain , Thunderstorm Heavy Thunderstorms and Rain
7:33 PM 71.1 °F - 70.0 °F 96% 29.93 in 1.8 mi SW 16.1 mph 34.5 mph 0.70 in Rain , Thunderstorm Heavy Thunderstorms and Rain
7:36 PM 71.1 °F - 70.0 °F 96% 29.93 in 3.0 mi WSW 18.4 mph 25.3 mph 0.71 in Rain , Thunderstorm Heavy Thunderstorms and Rain
7:41 PM 72.0 °F - 71.1 °F 97% 29.93 in 1.8 mi SSW 9.2 mph 25.3 mph 0.75 in Rain , Thunderstorm Thunderstorms and Rain
7:50 PM 71.6 °F - 71.6 °F 100% 29.94 in 1.0 mi SW 17.3 mph 23.0 mph 0.92 in Rain , Thunderstorm Heavy Thunderstorms and Rain
7:53 PM 72.0 °F - 72.0 °F 100% 29.94 in 0.8 mi SW 16.1 mph 24.2 mph 1.08 in Rain , Thunderstorm Heavy Thunderstorms and Rain
8:01 PM 71.1 °F - 71.1 °F 100% 29.94 in 0.8 mi SW 28.8 mph 42.6 mph 0.36 in Rain , Thunderstorm Heavy Thunderstorms and Rain
8:30 PM 71.1 °F - 71.1 °F 100% 29.96 in 2.0 mi SSW 18.4 mph 31.1 mph 1.43 in Rain , Thunderstorm Heavy Thunderstorms and Rain
8:38 PM 71.1 °F - - N/A% 29.95 in 7.0 mi SW 16.1 mph - 1.47 in Rain , Thunderstorm Light Thunderstorms and Rain
8:51 PM 69.8 °F - - N/A% 29.95 in 7.0 mi South 13.8 mph 23.0 mph 1.48 in Rain Light Rain
8:53 PM 70.0 °F - - N/A% 29.94 in 7.0 mi SSW 15.0 mph 21.9 mph 1.48 in Rain Light Rain
9:53 PM 71.1 °F - 71.1 °F 100% 29.94 in 10.0 mi South 8.1 mph - 0.01 in   Overcast
10:53 PM 72.0 °F - 72.0 °F 100% 29.94 in 10.0 mi SW 10.4 mph - N/A   Mostly Cloudy
11:53 PM 71.1 °F - 71.1 °F 100% 29.92 in 10.0 mi WSW 8.1 mph - N/A   Mostly Cloudy